Regional Weather Roundup
Issued by NWS New Orleans/Baton Rouge, LA

Home | Current Version | Previous Version | Graphics & Text | Print | Product List | Glossary On
Versions: 1 2 3 4 5 6 7 8 9 10 11 12 13 14 15 16 17 18 19 20 21 22 23 24 25 26 27 28 29 30 31 32 33 34 35 36 37 38 39 40 41 42 43 44 45 46 47 48 49 50
502
ASUS44 KLIX 010705
RWRLIX
NEW ORLEANS REGIONAL WEATHER ROUNDUP
NATIONAL WEATHER SERVICE NEW ORLEANS LA
200 AM CDT MON SEP 01 2014

NOTE: "FAIR" INDICATES FEW OR NO CLOUDS BELOW 12,000 FEET WITH NO
      SIGNIFICANT WEATHER AND/OR OBSTRUCTIONS TO VISIBILITY.
      SKY/WX - SKY CONDITION AND SIGNIFICANT WEATHER.
      TMP - AIR TEMPERATURE.     DP    - DEWPOINT TEMPERATURE.
      RH  - RELATIVE HUMIDITY.   PRES  - PRESSURE.
      HI  - HEAT INDEX.          WCI   - WIND CHILL INDEX.

*  THESE STATIONS ARE NOT NWS OR FAA STATIONS AND ARE NOT UNDER
   NWS QUALITY CONTROL.

LAZ038-040-048-061>063-065>067-069-010800-
SOUTHEAST LOUISIANA

CITY           SKY/WX    TMP DP  RH WIND       PRES   REMARKS
N.O. AUDUBON     N/A     82  79  90 MISG        N/A
N.O. INTL ARPT MOCLDY    82  76  81 SE9       30.01F
N.O. LAKEFRONT CLEAR     81  77  88 SE8       30.02F
N.O. DOWNTOWN*   N/A     82  73  74 SE3       30.02F
SLIDELL        CLEAR     80  76  87 SE5       30.02F
BATON ROUGE    CLEAR     76  74  93 E6        30.02S
BOOTHVILLE     PTCLDY    83  78  85 SE7       30.03F
BELLE CHASSE   PTCLDY    82  75  79 SE6       30.01F
BOGALUSA*        N/A     74  71  88 N3        30.04F
GALLIANO*      NOT AVBL
NEW ROADS*       N/A     77  75  94 CALM      30.01F
GONZALES*        N/A     78  78 100 CALM      30.00F
HAMMOND*       CLEAR     75  72  88 CALM      30.04S
HOUMA*         CLEAR     80  75  84 SE6       30.01S
PORT FOURCHON* NOT AVBL

$$

MSZ070-080>082-010800-
SOUTHERN MISSISSIPPI

CITY           SKY/WX    TMP DP  RH WIND       PRES   REMARKS
MCCOMB         CLEAR     75  73  93 SE6       30.04F
GULFPORT       PTCLDY    83  76  79 SE13      30.02F
BILOXI         CLEAR     84  76  77 S8        30.03F
PASCAGOULA     CLEAR     73  73 100 CALM      30.04F FOG

$$

COASTAL OBSERVATIONS
LAKE AND NEARSHORE STATIONS

STATION/POSITION TIME  TEMP    WIND        PRES    WAVE
                       AIR SEA DIR/SP/G            HT/PER
                 (UTC) (F)     (DEG/KT/KT) (MB)    (FT/S)
PASCAGOULA       0700   85     150/  7/ 13 1016.8
WAVELAND YACHT   0700   85     160/ 13/ 16 1016.2
GRAND ISLE       0700   84 85  150/  8/ 15 1017.0
SOUTHWEST PASS   0700   85 90  140/ 14/ 17 1016.7
NEW CANAL        0700   82 81  140/  4/  8 1016.9
SHELL BEACH      0700   82 80  130/  6/  8 1016.5

OFFSHORE STATIONS

STATION/POSITION TIME  TEMP    WIND        PRES    WAVE
                       AIR SEA DIR/SP/G            HT/PER
                 (UTC) (F)     (DEG/KT/KT) (MB)    (FT/S)

$$




USA.gov is the U.S. government's official web portal to all federal, state and local government web resources and services.